Weather Service Report


745 
ASUS45 KSLC 211910
RWRUT 

UTAH REGIONAL WEATHER ROUNDUP
NATIONAL WEATHER SERVICE SALT LAKE CITY UT
1200 PM MST SUN DEC 21 2014

UTZ001>011-023>025-212000-

NORTHERN UTAH
  
CITY           SKY/WX    TMP DP  RH WIND       PRES   REMARKS
BRIGHAM CITY   CLOUDY    44  39  84 S17G24    29.93S                  
HILL AFB       CLOUDY    38  38  99 S18G24    29.95F WCI  29          
LOGAN          CLOUDY    44  38  79 SW7       29.88F                  
OGDEN          LGT RAIN  40  39  97 S14       29.94F WCI  32          
PROVO AIRPORT  CLOUDY    39  37  93 NE3       30.02F                  
SALT LAKE CITY LGT RAIN  41  37  86 S14       29.97F                  
VERNAL         CLOUDY    32  28  85 CALM      29.90F                  
WENDOVER       CLOUDY    54  37  54 NW13      29.98S                  
HEBER CITY     MIX PCPN  34  32  93 CALM      29.95F                  
WEST JORDAN    CLOUDY    37  37 100 S17G24    29.98F WCI  28          

$$

UTZ012>022-026-027-212000-

SOUTHERN/CENTRAL UTAH
  
CITY           SKY/WX    TMP DP  RH WIND       PRES   REMARKS
BLANDING       CLOUDY    34  31  88 CALM      30.10F                  
BRYCE CANYON   PTSUNNY   45  30  55 NW8       30.10F                  
CEDAR CITY     PTSUNNY   50  34  54 S3        30.09F                  
DELTA          CLOUDY    43  33  68 S10       30.04F                  
MILFORD        PTSUNNY   46  33  60 SW20      30.07F                  
MOAB/CYNLANDS  CLOUDY    38  32  79 NW8       30.01F WCI  32          
PRICE          LGT SNOW  32  26  78 CALM      29.99F                  
ST GEORGE      CLOUDY    46  34  61 W3        30.15F                  
KANAB          MOSUNNY   41  32  70 SW7       30.15F                  

$$

REGIONAL REPORTS     COLORADO/ARIZONA
  
CITY           SKY/WX    TMP DP  RH WIND       PRES   REMARKS
CRAIG, CO      CLOUDY    38  29  70 SW25G35   29.80F WCI  27          
GRAND JUNCTION LGT SNOW  33  32  96 NW3       30.01S FOG              
RIFLE          CLOUDY    34  28  79 W14G21    29.94F WCI  25          
MONTROSE       LGT SNOW  32  29  88 CALM      29.99F FOG              
CORTEZ         MOSUNNY   39  29  67 CALM      30.04F                  
PAGE, AZ       MOSUNNY   42  30  62 VRB3      30.09F                  
GRAND CANYON   SUNNY     43  30  60 VRB6      30.14F                  
KINGMAN        MOSUNNY   51  37  58 NE3       30.14F                  
FLAGSTAFF      SUNNY     51  31  46 SW9G17    30.12R                  

$$

REGIONAL REPORTS    NEVADA/IDAHO/WYOMING
  
CITY           SKY/WX    TMP DP  RH WIND       PRES   REMARKS
LAS VEGAS, NV  CLOUDY    52  38  58 S3        30.11F                  
ELY            CLOUDY    48  38  68 NE5       30.13F                  
ELKO           CLOUDY    48  40  73 W22G28    30.07S                  
POCATELLO, ID  CLOUDY    47  43  86 W36G45    29.80F                  
BURLEY         LGT RAIN  49  43  80 W30G43    29.84F                  
EVANSTON, WY   SNOW      33  32  96 SW17      29.86F VSB 1/4 WCI  22  
ROCK SPRINGS   CLOUDY    38  31  76 W36G46    29.71F WCI  25          
KEMMERER       LGT SNOW  34  32  93 SW23G30   29.79S WCI  22          

$$

Return to Home page


Western Regional Climate Center, wrcc@dri.edu